Missoula, Montana, United States (59801)
Lat: 46.87N, Lon: 113.99W
Wx Zone: MTZ005
Local Info
Past Weather Observations for Today

NOTE: This archive is for the closest National Weather Service station to Missoula. Information may differ from the station used for current weather conditions.

Click here for Long-term Archive

Time Weather Temperature Dewpoint Humidity Pressure Winds Precip Visibility
16:51
Overcast
Unknown Precip
32°F / 0°C 30°F / -1°C 93% 29.95 in
(1014 mb)
NW 5.8 mph
(NW 9 kph)
0.01 in
(0.25 mm)
2 1/2SM
16:16
Overcast
Unknown Precip
32°F / 0°C 30°F / -1°C 93% 29.95 in
(1014 mb)
W 3.5 mph
(W 6 kph)
0.00 in
(0.00 mm)
1 3/4SM
15:53
Overcast
Unknown Precip
32°F / 0°C 30°F / -1°C 93% 29.95 in
(1014 mb)
SSW 3.5 mph
(SSW 6 kph)
0.02 in
(0.51 mm)
2 1/2SM
15:45
Overcast
Unknown Precip
32°F / 0°C 30°F / -1°C 93% 29.95 in
(1014 mb)
Calm 0.01 in
(0.25 mm)
3SM
15:36
Overcast
Unknown Precip
32°F / 0°C 30°F / -1°C 93% 29.95 in
(1014 mb)
Calm 0.01 in
(0.25 mm)
2 1/2SM
14:53
Overcast
Unknown Precip
32°F / 0°C 30°F / -1°C 93% 29.92 in
(1013 mb)
W 3.5 mph
(W 6 kph)
0.02 in
(0.51 mm)
4SM
13:53
Overcast
Light Rain
34°F / 1°C 28°F / -2°C 81% 29.92 in
(1013 mb)
W 3.5 mph
(W 6 kph)
0.00 in
(0.00 mm)
8SM
13:16
Overcast
Unknown Precip
34°F / 1°C 28°F / -2°C 81% 29.95 in
(1014 mb)
Calm 0.00 in
(0.00 mm)
7SM
12:53
Overcast
34°F / 1°C 28°F / -2°C 81% 29.95 in
(1014 mb)
NW 5.8 mph
(NW 9 kph)
0.01 in
(0.25 mm)
10SM
11:53
Overcast
34°F / 1°C 28°F / -2°C 81% 29.95 in
(1014 mb)
Calm - 10SM
10:53
Overcast
34°F / 1°C 28°F / -2°C 81% 29.95 in
(1014 mb)
Calm - 10SM
10:32
Overcast
32°F / 0°C 28°F / -2°C 87% 29.95 in
(1014 mb)
Calm - 10SM
09:53
Overcast
30°F / -1°C 28°F / -2°C 93% 29.95 in
(1014 mb)
Calm - 9SM
08:53
Overcast
Fog And Mist
28°F / -2°C 28°F / -2°C 100% 29.98 in
(1015 mb)
Calm - 6SM
07:53
Overcast
30°F / -1°C 28°F / -2°C 93% 29.98 in
(1015 mb)
Calm - 8SM
06:53
Overcast
28°F / -2°C 28°F / -2°C 100% 29.98 in
(1015 mb)
Calm - 7SM
05:53
Overcast
30°F / -1°C 28°F / -2°C 93% 29.98 in
(1015 mb)
Calm - 9SM
04:53
Overcast
30°F / -1°C 28°F / -2°C 93% 29.98 in
(1015 mb)
SSW 3.5 mph
(SSW 6 kph)
- 10SM
03:53
Overcast
28°F / -2°C 28°F / -2°C 100% 30.01 in
(1016 mb)
Calm - 8SM
02:53
Overcast
30°F / -1°C 28°F / -2°C 93% 30.01 in
(1016 mb)
Calm - 10SM
01:53
Mostly Cloudy
30°F / -1°C 28°F / -2°C 93% 30.01 in
(1016 mb)
Calm - 10SM
00:53
Overcast
30°F / -1°C 28°F / -2°C 93% 30.01 in
(1016 mb)
SE 3.5 mph
(SE 6 kph)
- 8SM
Time Weather Temperature Dewpoint Humidity Pressure Winds Precip Visibility


Weather for websites

WeatherForYou.com, LLC is not responsible for any damages or problems caused by this service. Current weather conditions are obtained from the closest station including government and personal stations which may have varying degrees of accuracy. Weather forecasts are derived from the NOAA NDFD. Like all things, this site belongs to Jesus Christ... He just trusts me to maintain it. If you have any questions or comments email webmaster@weatherforyou.com

Copyright © 2014, WeatherForYou.com LLC. All rights reserved.